Find Starlink 32193

NORAD ID: 60428 Int'l Des: 2024-144 Owner: SPXS Country: US Constellation: starlink operational
LEOCIRCULAR

リアルタイム位置

3D地球を読み込み中...

Starlink 32193について

説明を読み込み中...

次回通過

Passes for default location (London). Set your location on the main map for personalized predictions.

高度履歴

Loading altitude history...

軌道要素

1 60428U 24144D 26123.86583578 .00000538 00000-0 30301-4 0 9996
2 60428 53.1606 321.0760 0001236 91.2971 268.8171 15.30186989 97798
Epoch: May 3, 2026 • Age: 4 hours

現在のステータス

高度 477.7 km
速度 7.63 km/s
衛星直下点 37.77°N, 124.04°W
打ち上げ日 Aug 12, 2024
運用期間 1.7 years
タイプ internet

技術仕様

分類 Payload
質量 730.00 kg
乾燥質量 700.00 kg
総質量 730.00 kg
長さ 0.30 m
直径 4.10 m
スパン 29.00 m
形状 Box + pan
製造者 SPXS
バスタイプ Starlink V2M
フェーズステータス In Orbit
所有者/国 SPXS/US

Most Searched